Retour au catalogue

COSMOS 1927

ActifMilitaireLEO
NORAD 18940·PAYLOAD·🇷🇺 Russia

Lancé Mar 11, 1988 depuis Plesetsk Cosmodrome

Loading…

Prochains Passages (prochaines 24 heures)

TLE

FraisSource: Space-Track

Époque: Sep 14, 2026, 09:50 UTC

1 18940U 88016D   26257.41023416  .00000010  00000-0  17197-3 0  9997
2 18940  74.0061 152.6356 0007038  96.8609  22.4614 12.50921769758681

Suivez COSMOS 1927 en temps réel avec AllMySat

Download on the App Store